Weather History for Palma de Mallorca, Spain

Change the Weather History Date:

Saturday, March 1, 2014

  Actual Average Record
Temperature  
Mean Temperature 55 °F -  
Max Temperature 60 °F 62 °F 69 °F (2007)
Min Temperature 50 °F 41 °F 32 °F (2004)
Degree Days  
Heating Degree Days 10    
Growing Degree Days 5 (Base 50)    
Moisture  
Dew Point 41 °F    
Average Humidity 59    
Maximum Humidity 88    
Minimum Humidity 34    
Precipitation  
Precipitation 0.00 in 0.05 in - ()
Sea Level Pressure  
Sea Level Pressure 29.72 in    
Wind  
Wind Speed 14 mph ()    
Max Wind Speed 26 mph    
Max Gust Speed 40 mph    
Visibility 7.4 miles    
Events Rain    
Averages and records for this station are not official NWS values.
T = Trace of Precipitation, MM = Missing Value Source: Averaged Metar Reports

Daily Weather History Graph

Daily Weather History Graph

Search for Another Location

Airport:

Trip Planner

Search our weather history database for the weather conditions in past years. The results will help you decide how hot, cold, wet, or windy it might be!

Date:

Astronomy

Mar. 01, 2014 Rise Set
Actual Time 7:22 AM CET 6:41 PM CET
Civil Twilight 6:55 AM CET 7:08 PM CET
Nautical Twilight 6:24 AM CET 7:39 PM CET
Astronomical Twilight 5:53 AM CET 8:10 PM CET
Moon 7:06 AM CET (3/1) 7:10 PM CET (3/1)
Length of Visible Light 12h 12m
Length of Day
11h 18m
Waxing Crescent, 0% of the Moon is Illuminated
Mar 1
Waxing Crescent
Mar 8
First Quarter
Mar 16
Full
Mar 24
Last Quarter
Mar 30
New

Hourly Weather History & Observations

Time (CET) Temp. Dew Point Humidity Pressure Visibility Wind Dir Wind Speed Gust Speed Precip Events Conditions
12:00 AM 51 °F 35 °F 42% 29.88 in - NW 20.7 mph - -  
12:00 AM 51.8 °F 35.6 °F 54% 29.86 in 6.2 mi NW 24.2 mph - N/A   Partly Cloudy
12:30 AM 50.0 °F 37.4 °F 62% 29.86 in 6.2 mi NNW 23.0 mph - N/A   Partly Cloudy
1:00 AM 51 °F 36 °F 44% 29.87 in 12 mi NW 20.7 mph - -   Scattered Clouds
1:00 AM 51.8 °F 35.6 °F 54% 29.86 in 6.2 mi NNW 20.7 mph 33.4 mph N/A   Partly Cloudy
1:30 AM 50.0 °F 35.6 °F 58% 29.83 in 6.2 mi NW 24.2 mph - N/A   Partly Cloudy
2:00 AM 51 °F 35 °F 42% 29.85 in - NW 23.0 mph - -  
2:00 AM 51.8 °F 35.6 °F 54% 29.83 in 6.2 mi NNW 24.2 mph 35.7 mph N/A   Partly Cloudy
2:30 AM 51.8 °F 35.6 °F 54% 29.83 in 6.2 mi NW 23.0 mph 34.5 mph N/A   Partly Cloudy
3:00 AM 51 °F 34 °F 40% 29.84 in - NW 20.7 mph - -  
3:00 AM 51.8 °F 35.6 °F 54% 29.83 in 6.2 mi NNW 23.0 mph 34.5 mph N/A   Partly Cloudy
3:30 AM 51.8 °F 35.6 °F 54% 29.83 in 6.2 mi NNW 26.5 mph 40.3 mph N/A   Partly Cloudy
4:00 AM 51 °F 36 °F 46% 29.83 in 9 mi NW 20.7 mph - -   Scattered Clouds
4:00 AM 50.0 °F 37.4 °F 62% 29.80 in 6.2 mi NNW 24.2 mph 35.7 mph N/A   Partly Cloudy
4:30 AM 51.8 °F 37.4 °F 58% 29.80 in 6.2 mi NNW 20.7 mph - N/A   Partly Cloudy
5:00 AM 51 °F 36 °F 45% 29.82 in - NW 19.6 mph - -  
5:00 AM 51.8 °F 37.4 °F 58% 29.80 in 6.2 mi NW 17.3 mph 28.8 mph N/A   Partly Cloudy
5:30 AM 51.8 °F 37.4 °F 58% 29.80 in 6.2 mi NNW 8.1 mph 19.6 mph N/A   Partly Cloudy
6:00 AM 51 °F 35 °F 43% 29.82 in - NW 9.2 mph - -  
6:00 AM 51.8 °F 35.6 °F 54% 29.80 in 6.2 mi WNW 4.6 mph - N/A   Partly Cloudy
6:30 AM 51.8 °F 35.6 °F 54% 29.80 in 6.2 mi NNW 5.8 mph - N/A   Partly Cloudy
7:00 AM 52 °F 35 °F 41% 29.83 in 12 mi South 5.8 mph - -   Mostly Cloudy
7:00 AM 51.8 °F 35.6 °F 54% 29.83 in 6.2 mi South 6.9 mph - N/A   Mostly Cloudy
7:30 AM 51.8 °F 35.6 °F 54% 29.83 in 6.2 mi West 11.5 mph - N/A   Scattered Clouds
8:00 AM 53 °F 36 °F 40% 29.84 in - WSW 9.2 mph - -  
8:00 AM 53.6 °F 37.4 °F 54% 29.83 in 6.2 mi West 6.9 mph - N/A   Scattered Clouds
8:30 AM 51.8 °F 39.2 °F 62% 29.83 in 6.2 mi ENE 1.2 mph - N/A   Scattered Clouds
9:00 AM 54 °F 38 °F 43% 29.83 in - NW 5.8 mph - -  
9:00 AM 53.6 °F 37.4 °F 54% 29.83 in 6.2 mi NW 5.8 mph - N/A   Scattered Clouds
9:30 AM 55.4 °F 39.2 °F 54% 29.80 in 6.2 mi NNW 13.8 mph - N/A   Scattered Clouds
10:00 AM 55 °F 38 °F 41% 29.83 in 19 mi WNW 8.1 mph - -   Mostly Cloudy
10:00 AM 55.4 °F 39.2 °F 54% 29.80 in 6.2 mi NW 13.8 mph - N/A   Scattered Clouds
10:30 AM 55.4 °F 39.2 °F 54% 29.80 in 6.2 mi WNW 6.9 mph - N/A   Scattered Clouds
11:00 AM 58 °F 39 °F 37% 29.81 in - WNW 5.8 mph - -  
11:00 AM 57.2 °F 41.0 °F 55% 29.80 in 6.2 mi WNW 8.1 mph - N/A   Scattered Clouds
11:30 AM 57.2 °F 41.0 °F 55% 29.80 in 6.2 mi West 5.8 mph - N/A   Scattered Clouds
12:00 PM 59 °F 38 °F 34% 29.79 in - West 6.9 mph - -  
12:00 PM 59.0 °F 39.2 °F 48% 29.77 in 6.2 mi West 10.4 mph - N/A   Scattered Clouds
12:30 PM 59.0 °F 37.4 °F 45% 29.77 in 6.2 mi West 9.2 mph - N/A   Scattered Clouds
1:00 PM 59 °F 45 °F 50% 29.75 in 19 mi WSW 18.4 mph - -   Partly Cloudy
1:00 PM 59.0 °F 46.4 °F 63% 29.74 in 6.2 mi WSW 17.3 mph - N/A   Scattered Clouds
1:30 PM 59.0 °F 46.4 °F 63% 29.71 in 6.2 mi West 13.8 mph - N/A   Scattered Clouds
2:00 PM 60 °F 47 °F 52% 29.71 in - WSW 17.3 mph - -  
2:00 PM 59.0 °F 48.2 °F 67% 29.71 in 6.2 mi West 17.3 mph - N/A   Scattered Clouds
2:30 PM 59.0 °F 42.8 °F 55% 29.68 in 6.2 mi West 15.0 mph - N/A   Scattered Clouds
3:00 PM 60 °F 43 °F 41% 29.68 in - West 16.1 mph - -  
3:00 PM 59.0 °F 42.8 °F 55% 29.65 in 6.2 mi West 16.1 mph - N/A   Scattered Clouds
3:30 PM 57.2 °F 42.8 °F 59% 29.65 in 6.2 mi West 17.3 mph 31.1 mph N/A   Scattered Clouds
4:00 PM 58 °F 41 °F 42% 29.65 in 19 mi West 12.7 mph - -   Overcast
4:00 PM 57.2 °F 42.8 °F 59% 29.65 in 6.2 mi West 13.8 mph - N/A   Partly Cloudy
4:30 PM 57.2 °F 44.6 °F 63% 29.62 in 6.2 mi West 12.7 mph - N/A   Partly Cloudy
5:00 PM 57 °F 46 °F 56% 29.62 in - West 12.7 mph - -  
5:00 PM 57.2 °F 46.4 °F 67% 29.62 in 6.2 mi West 16.1 mph - N/A   Partly Cloudy
5:30 PM 55.4 °F 46.4 °F 72% 29.59 in 6.2 mi West 13.8 mph - N/A   Partly Cloudy
6:00 PM 56 °F 45 °F 58% 29.61 in - West 9.2 mph - -  
6:00 PM 55.4 °F 46.4 °F 72% 29.59 in 6.2 mi West 10.4 mph - N/A   Partly Cloudy
6:30 PM 55.4 °F 46.4 °F 72% 29.59 in 6.2 mi West 10.4 mph - N/A   Scattered Clouds
7:00 PM 56 °F 46 °F 59% 29.59 in 19 mi West 6.9 mph - -   Overcast
7:00 PM 55.4 °F 46.4 °F 72% 29.59 in 6.2 mi West 6.9 mph - N/A   Scattered Clouds
7:30 PM 55.4 °F 46.4 °F 72% 29.56 in 6.2 mi WSW 6.9 mph - N/A   Partly Cloudy
8:00 PM 55 °F 48 °F 70% 29.58 in - WSW 8.1 mph - -  
8:00 PM 55.4 °F 48.2 °F 77% 29.56 in 6.2 mi West 5.8 mph - N/A   Partly Cloudy
8:30 PM 53.6 °F 48.2 °F 82% 29.56 in 6.2 mi West 8.1 mph - N/A Rain Light Rain
9:00 PM 54 °F 49 °F 79% 29.56 in - West 8.1 mph - -   Unknown Precipitation
9:00 PM 53.6 °F 48.2 °F 82% 29.53 in 6.2 mi West 9.2 mph - N/A   Scattered Clouds
9:30 PM 53.6 °F 48.2 °F 82% 29.53 in 6.2 mi WSW 4.6 mph - N/A   Partly Cloudy
10:00 PM 54 °F 50 °F 80% 29.54 in 9 mi West 4.6 mph - -   Partly Cloudy
10:00 PM 53.6 °F 50.0 °F 88% 29.53 in 6.2 mi West 3.5 mph - N/A   Partly Cloudy
10:30 PM 53.6 °F 50.0 °F 88% 29.53 in 6.2 mi Calm Calm - N/A   Partly Cloudy
11:00 PM 54 °F 50 °F 82% 29.54 in - West 6.9 mph - -  
11:00 PM 53.6 °F 50.0 °F 88% 29.53 in 6.2 mi Calm Calm - N/A   Partly Cloudy
11:30 PM 51.8 °F 48.2 °F 88% 29.53 in 6.2 mi East 2.3 mph - N/A   Partly Cloudy